Location: Bucharest
(44.4268°N, 26.1025°E)
Time: 12:08:59
(UTC+03:00)

CUBESAT XI-V - Pass Details

Date: 30 June 2022
Orbit: 668 x 690 km, 98.1° (Epoch: 14 August)

Event Time Altitude Azimuth Distance (km) Brightness Sun altitude
Exits shadow 02:05:07 15° 118° (ESE) 1,810 ? -21.6°
Maximum altitude 02:08:08 28° 67° (ENE) 1,247 ? -21.5°
Drops below altitude 10° 02:12:04 10° 8° (N) 2,111 ? -21.3°
Sets 02:14:31 0° 357° (N) 3,027 ? -21.2°
